Location: Unspecified
(35.6961°N, 0.0000°E)
Time: 13:25:31
(UTC+00:00)

Courier 1B - All Passes

Search period start: 23 May 2019 00:00
Search period end: 02 June 2019 00:00
Orbit: 962 x 1209 km, 28.3° (Epoch: 22 May)

Date Brightness Start Highest point End Pass type
(mag) Time Alt. Az. Time Alt. Az. Time Alt. Az.
23 May - 05:13:48 10° SSW 05:18:28 21° SSE 05:23:04 10° ESE daylight
23 May - 07:05:52 10° SW 07:11:48 39° S 07:17:45 10° ESE daylight
23 May - 08:59:14 10° WSW 09:05:19 44° S 09:11:34 10° ESE daylight
23 May - 10:53:17 10° WSW 10:58:49 29° SSW 11:04:34 10° SE daylight
23 May - 12:49:44 10° SW 12:52:08 12° SSW 12:54:33 10° S daylight
24 May - 04:21:03 10° S 04:24:56 16° SSE 04:28:44 10° ESE visible
24 May - 06:12:24 10° SW 06:18:13 34° SSE 06:23:58 10° ESE daylight
24 May - 08:05:37 10° WSW 08:11:43 44° S 08:17:53 10° ESE daylight
24 May - 09:59:28 10° WSW 10:05:13 34° SSW 10:11:09 10° SE daylight
24 May - 11:54:45 10° WSW 11:58:33 16° SSW 12:02:27 10° S daylight
25 May - 03:28:55 10° S 03:31:23 12° SSE 03:33:49 10° SE visible
25 May - 05:19:00 10° SW 05:24:38 30° SSE 05:30:08 10° ESE daylight
25 May - 07:11:59 10° WSW 07:18:05 44° S 07:24:11 10° ESE daylight
25 May - 09:05:43 10° WSW 09:11:37 38° S 09:17:38 10° SE daylight
25 May - 11:00:24 10° WSW 11:04:59 20° SSW 11:09:41 10° SSE daylight
26 May - 04:25:44 10° SSW 04:31:03 25° SSE 04:36:14 10° ESE daylight
26 May - 06:18:22 10° WSW 06:24:29 42° S 06:30:30 10° ESE daylight
26 May - 08:12:00 10° WSW 08:18:01 41° S 08:24:05 10° ESE daylight
26 May - 10:06:19 10° WSW 10:11:25 25° SSW 10:16:37 10° SSE daylight
27 May - 03:32:37 10° SSW 03:37:29 21° SSE 03:42:11 10° ESE visible
27 May - 05:24:46 10° SW 05:30:53 38° S 05:36:48 10° ESE daylight
27 May - 07:18:16 10° WSW 07:24:25 44° S 07:30:30 10° ESE daylight
27 May - 09:12:23 10° WSW 09:17:51 29° SSW 09:23:23 10° SE daylight
27 May - 11:08:53 10° SW 11:11:04 12° SSW 11:13:16 10° S daylight
28 May - 02:39:47 10° S 02:43:53 16° SSE 02:47:52 10° ESE visible
28 May - 04:31:13 10° SW 04:37:15 34° SSE 04:43:04 10° ESE daylight
28 May - 06:24:33 10° WSW 06:30:48 45° S 06:36:54 10° ESE daylight
28 May - 08:18:32 10° WSW 08:24:17 34° SSW 08:30:03 10° SE daylight
28 May - 10:13:50 10° WSW 10:17:33 16° SSW 10:21:18 10° S daylight
29 May - 01:47:32 10° S 01:50:17 12° SSE 01:53:00 10° SE visible
29 May - 03:37:44 10° SW 03:43:38 30° SSE 03:49:18 10° ESE visible
29 May - 05:30:49 10° WSW 05:37:10 44° S 05:43:17 10° ESE daylight
29 May - 07:24:42 10° WSW 07:30:42 39° S 07:36:38 10° SE daylight
29 May - 09:19:27 10° WSW 09:24:01 20° SSW 09:28:36 10° SSE daylight
30 May - 02:44:22 10° SSW 02:50:01 25° SSE 02:55:24 10° ESE visible
30 May - 04:37:06 10° WSW 04:43:31 42° S 04:49:39 10° ESE daylight
30 May - 06:30:53 10° WSW 06:37:06 42° S 06:43:08 10° ESE daylight
30 May - 08:25:18 10° WSW 08:30:29 25° SSW 08:35:38 10° SSE daylight
31 May - 01:51:11 10° SSW 01:56:22 21° SSE 02:01:21 10° ESE visible
31 May - 03:43:24 10° SW 03:49:52 39° S 03:55:59 10° ESE visible
31 May - 05:37:03 10° WSW 05:43:28 45° S 05:49:38 10° ESE daylight
31 May - 07:31:18 10° WSW 07:36:56 30° SSW 07:42:28 10° SE daylight
31 May - 09:27:44 10° SW 09:30:06 12° SSW 09:32:27 10° S daylight
01 Jun - 00:58:18 10° S 01:02:43 17° SSE 01:07:01 10° ESE visible
01 Jun - 02:49:46 10° SW 02:56:11 35° SSE 03:02:16 10° ESE visible
01 Jun - 04:43:13 10° WSW 04:49:49 46° S 04:56:04 10° ESE daylight
01 Jun - 06:37:21 10° WSW 06:43:21 35° SSW 06:49:11 10° SE daylight
01 Jun - 08:32:42 10° WSW 08:36:35 17° SSW 08:40:27 10° S daylight
